Date String (YYYY-MM-DD hh:mm:ss) UTC,Instrument flags,Ambient pressure (hPa),Sample flow (lpm),Bypass flow (lpm),Sample temperature (°C),Ambient temperature (°C),ASC tube jacket temperature (°C),LED temperature (°C),Box temperature (°C),Sample RH (%),Span deviation,Mass concentration (μg/m³),Mass concentration (μg/m³),Mass concentration (μg/m³)
DateTimeUTC,F1_M11,P_M11,Q1_M11,Q2_M11,T1_M11,T2_M11,T3_M11,T4_M11,T5_M11,U1_M11,ZSPAN_M11,X2_M11,X0_M11,X1_M11
2021-09-20 12:00:00,,0825.3,5.00,0.00,29.2,28.4,00.0,38.5,31.0,14.9,0000.0,0003.41,0005.74,0002.90
2021-09-20 12:01:00,,0825.3,5.02,0.00,29.2,28.4,00.0,38.4,30.9,15.0,0000.0,0003.47,0006.05,0002.96
2021-09-20 12:02:00,,0825.3,5.01,0.00,29.2,28.4,00.0,38.4,31.0,15.1,0000.0,0003.52,0006.25,0003.02
2021-09-20 12:03:00,,0825.3,4.99,0.00,29.2,28.4,00.0,38.4,31.0,14.9,0000.0,0003.55,0006.34,0003.08
2021-09-20 12:04:00,,0825.4,5.00,0.00,29.2,28.4,00.0,38.4,31.0,14.7,0000.0,0003.59,0006.42,0003.13
2021-09-20 12:05:00,,0825.3,5.00,0.00,29.2,28.5,00.0,38.4,31.0,14.9,0000.0,0003.66,0006.39,0003.17
2021-09-20 12:06:00,,0825.4,5.00,0.00,29.2,28.5,00.0,38.4,31.0,14.8,0000.0,0003.66,0006.34,0003.18
2021-09-20 12:07:00,,0825.3,4.99,0.00,29.2,28.5,00.0,38.4,31.0,14.5,0000.0,0003.64,0006.23,0003.18
2021-09-20 12:08:00,,0825.4,4.99,0.00,29.2,28.5,00.0,38.4,31.1,14.4,0000.0,0003.67,0006.24,0003.20
2021-09-20 12:09:00,,0825.4,5.00,0.00,29.3,28.5,00.0,38.4,31.1,14.4,0000.0,0003.74,0007.15,0003.26
2021-09-20 12:10:00,,0825.5,4.99,0.00,29.3,28.5,00.0,38.4,31.1,14.4,0000.0,0003.81,0007.36,0003.31
2021-09-20 12:11:00,,0825.5,5.01,0.00,29.3,28.5,00.0,38.4,31.1,14.4,0000.0,0003.81,0007.99,0003.33
2021-09-20 12:12:00,,0825.4,5.00,0.00,29.3,28.5,00.0,38.4,31.1,14.4,0000.0,0003.87,0008.17,0003.38
2021-09-20 12:13:00,,0825.5,4.99,0.00,29.3,28.5,00.0,38.4,31.1,14.5,0000.0,0003.94,0008.30,0003.42
2021-09-20 12:14:00,,0825.4,5.00,0.00,29.3,28.5,00.0,38.4,31.1,14.4,0000.0,0004.00,0008.43,0003.47
2021-09-20 12:15:00,,0825.5,5.01,0.00,29.3,28.5,00.0,38.4,31.1,14.6,0000.0,0004.04,0008.56,0003.50
2021-09-20 12:16:00,,0825.6,4.99,0.00,29.4,28.6,00.0,38.4,31.1,14.6,0000.0,0004.04,0008.48,0003.51
2021-09-20 12:17:00,,0825.6,5.00,0.00,29.4,28.6,00.0,38.4,31.1,14.6,0000.0,0004.06,0008.60,0003.54
2021-09-20 12:18:00,,0825.6,5.00,0.00,29.4,28.6,00.0,38.4,31.1,14.7,0000.0,0004.05,0008.64,0003.54
2021-09-20 12:19:00,,0825.8,4.99,0.00,29.4,28.6,00.0,38.4,31.2,14.9,0000.0,0004.03,0008.83,0003.51
2021-09-20 12:20:00,,0825.9,5.00,0.00,29.4,28.6,00.0,38.4,31.2,15.0,0000.0,0003.97,0008.61,0003.48
2021-09-20 12:21:00,,0825.6,5.01,0.00,29.4,28.6,00.0,38.5,31.2,15.0,0000.0,0003.94,0008.92,0003.44
2021-09-20 12:22:00,,0825.6,4.98,0.00,29.4,28.6,00.0,38.5,31.2,15.0,0000.0,0003.92,0008.41,0003.41
2021-09-20 12:23:00,,0825.6,5.01,0.00,29.4,28.6,00.0,38.5,31.1,15.0,0000.0,0003.86,0008.05,0003.37
2021-09-20 12:24:00,,0825.7,5.00,0.00,29.3,28.6,00.0,38.5,31.1,15.0,0000.0,0003.82,0008.13,0003.34
2021-09-20 12:25:00,,0825.9,5.01,0.00,29.4,28.5,00.0,38.5,31.1,14.7,0000.0,0003.84,0008.75,0003.34
2021-09-20 12:26:00,,0825.9,5.00,0.00,29.3,28.5,00.0,38.5,31.1,14.8,0000.0,0003.83,0008.81,0003.34
2021-09-20 12:27:00,,0825.7,5.00,0.00,29.3,28.5,00.0,38.5,31.1,14.8,0000.0,0003.84,0008.79,0003.35
2021-09-20 12:28:00,,0825.8,5.01,0.00,29.3,28.5,00.0,38.5,31.1,14.9,0000.0,0003.85,0008.72,0003.34
2021-09-20 12:29:00,,0825.9,4.99,0.00,29.3,28.5,00.0,38.5,31.1,14.7,0000.0,0003.89,0008.71,0003.35
2021-09-20 12:30:00,,0826.0,5.01,0.00,29.3,28.5,00.0,38.5,31.1,14.5,0000.0,0003.93,0009.25,0003.39
2021-09-20 12:31:00,,0826.0,5.01,0.00,29.4,28.6,00.0,38.5,31.1,14.9,0000.0,0004.01,0009.25,0003.44
2021-09-20 12:32:00,,0826.0,4.98,0.00,29.4,28.6,00.0,38.5,31.1,15.5,0000.0,0004.10,0009.30,0003.47
2021-09-20 12:33:00,,0826.0,5.01,0.00,29.4,28.6,00.0,38.5,31.2,15.7,0000.0,0004.20,0010.45,0003.50
2021-09-20 12:34:00,,0826.0,5.00,0.00,29.4,28.6,00.0,38.5,31.2,15.9,0000.0,0004.32,0011.84,0003.52
2021-09-20 12:35:00,,0826.1,4.99,0.00,29.4,28.6,00.0,38.5,31.2,16.2,0000.7,0004.42,0013.46,0003.53
2021-09-20 12:36:00,,0826.2,5.00,0.00,29.4,28.6,00.0,38.5,31.2,16.3,0000.7,0004.49,0013.46,0003.51
2021-09-20 12:37:00,,0826.2,5.01,0.00,29.5,28.7,00.0,38.5,31.2,16.5,0000.0,0004.56,0014.56,0003.49
2021-09-20 12:38:00,,0826.1,5.00,0.00,29.5,28.7,00.0,38.5,31.2,16.5,0000.0,0004.66,0015.99,0003.47
2021-09-20 12:39:00,,0826.1,4.99,0.00,29.5,28.7,00.0,38.5,31.3,16.5,0000.0,0004.73,0016.53,0003.47
2021-09-20 12:40:00,,0826.2,4.99,0.00,29.5,28.7,00.0,38.5,31.3,17.3,0000.0,0004.74,0017.67,0003.41
2021-09-20 12:41:00,,0826.3,4.99,0.00,29.5,28.7,00.0,38.6,31.3,17.6,0000.0,0004.76,0017.96,0003.29
2021-09-20 12:42:00,,0826.3,5.01,0.00,29.5,28.7,00.0,38.6,31.3,17.8,0000.0,0004.77,0019.98,0003.16
2021-09-20 12:43:00,,0826.2,5.00,0.00,29.5,28.7,00.0,38.6,31.3,17.9,0000.0,0004.79,0021.53,0002.99
2021-09-20 12:44:00,,0826.2,5.02,0.00,29.5,28.7,00.0,38.6,31.3,17.9,0000.0,0004.84,0021.63,0002.78
2021-09-20 12:45:00,,0826.2,5.00,0.00,29.5,28.7,00.0,38.6,31.3,17.9,0000.0,0004.84,0021.24,0002.57
2021-09-20 12:46:00,,0826.2,5.00,0.00,29.5,28.7,00.0,38.6,31.3,18.0,0000.0,0004.85,0021.73,0002.38
2021-09-20 12:47:00,,0826.2,4.99,0.00,29.5,28.6,00.0,38.6,31.2,18.1,0000.0,0004.85,0023.28,0002.18
2021-09-20 12:48:00,,0826.2,5.01,0.00,29.5,28.6,00.0,38.6,31.2,18.1,0000.0,0004.92,0023.25,0002.00
2021-09-20 12:49:00,,0826.2,5.01,0.00,29.4,28.6,00.0,38.6,31.2,18.1,0000.0,0004.94,0023.16,0001.83
2021-09-20 12:50:00,,0826.2,4.99,0.00,29.4,28.6,00.0,38.6,31.2,18.2,0000.0,0004.92,0023.08,0001.67
2021-09-20 12:51:00,,0826.3,5.00,0.00,29.4,28.6,00.0,38.6,31.2,18.2,0000.0,0004.99,0025.49,0001.58
2021-09-20 12:52:00,,0826.4,5.01,0.00,29.4,28.6,00.0,38.6,31.1,18.2,0000.0,0005.02,0027.95,0001.54
2021-09-20 12:53:00,,0826.4,4.99,0.00,29.4,28.6,00.0,38.5,31.1,18.3,0000.0,0005.03,0027.44,0001.50
2021-09-20 12:54:00,,0826.4,5.00,0.00,29.4,28.5,00.0,38.5,31.1,18.3,0000.0,0005.01,0027.10,0001.48
2021-09-20 12:55:00,,0826.4,5.00,0.00,29.4,28.5,00.0,38.5,31.1,18.4,0000.0,0004.86,0027.33,0001.45
2021-09-20 12:56:00,,0826.4,5.01,0.00,29.3,28.5,00.0,38.5,31.1,18.4,0000.0,0004.90,0028.06,0001.43
2021-09-20 12:57:00,,0826.4,5.00,0.00,29.3,28.5,00.0,38.5,31.1,18.5,0000.0,0004.89,0027.69,0001.41
2021-09-20 12:58:00,,0826.4,4.98,0.00,29.3,28.5,00.0,38.5,31.1,18.5,0000.0,0004.81,0028.97,0001.39
2021-09-20 12:59:00,,0826.4,5.00,0.00,29.3,28.5,00.0,38.5,31.1,18.5,0000.0,0004.69,0029.46,0001.36
